Location: Karcze
(52.0945°N, 22.4786°E)
Time: 16:36:27
(UTC+00:00)

Transit 2A - All Passes

Search period start: 28 July 2021 00:00
Search period end: 07 August 2021 00:00
Orbit: 598 x 960 km, 66.7° (Epoch: 27 July)

Date Brightness Start Highest point End Pass type
(mag) Time Alt. Az. Time Alt. Az. Time Alt. Az.
28 Jul - 05:51:09 10° SSW 05:55:26 55° ESE 06:00:04 10° NE daylight
28 Jul - 07:34:47 10° W 07:38:52 32° NW 07:43:16 10° NNE daylight
28 Jul - 09:20:35 10° NW 09:23:34 16° N 09:26:42 10° NNE daylight
28 Jul - 11:05:11 10° NNW 11:08:41 18° NNE 11:12:24 10° ENE daylight
28 Jul - 12:48:10 10° NNW 12:53:08 43° NE 12:58:33 10° ESE daylight
28 Jul - 14:31:18 10° NW 14:36:27 49° WSW 14:42:05 10° SSE daylight
29 Jul - 05:17:17 10° S 05:21:21 38° ESE 05:25:43 10° NE daylight
29 Jul - 07:00:14 10° WSW 07:04:29 41° NW 07:09:07 10° NNE daylight
29 Jul - 08:45:50 10° NW 08:49:00 17° NNW 08:52:21 10° NNE daylight
29 Jul - 10:30:53 10° NNW 10:34:07 17° NNE 10:37:33 10° NE daylight
29 Jul - 12:14:02 10° NNW 12:18:46 35° NE 12:23:57 10° ESE daylight
29 Jul - 13:57:01 10° NW 14:02:18 66° WSW 14:08:07 10° SSE daylight
29 Jul - 15:41:59 10° WNW 15:44:44 14° WSW 15:47:34 10° SW daylight
30 Jul - 04:43:38 10° S 04:47:20 27° ESE 04:51:15 10° NE daylight
30 Jul - 06:25:48 10° WSW 06:30:10 54° NW 06:34:56 10° NE daylight
30 Jul - 08:11:04 10° WNW 08:14:28 19° NNW 08:18:04 10° NNE daylight
30 Jul - 09:56:30 10° NNW 09:59:33 16° N 10:02:46 10° NE daylight
30 Jul - 11:39:52 10° NNW 11:44:21 29° NNE 11:49:14 10° E daylight
30 Jul - 13:22:48 10° NW 13:28:07 86° SW 13:34:00 10° SE daylight
30 Jul - 15:06:56 10° WNW 15:10:46 19° WSW 15:14:48 10° SSW daylight
31 Jul - 04:10:15 10° SSE 04:13:22 19° ESE 04:16:37 10° ENE daylight
31 Jul - 05:51:28 10° SW 05:55:54 73° NW 06:00:45 10° NE daylight
31 Jul - 07:36:18 10° WNW 07:39:57 22° NNW 07:43:50 10° NNE daylight
31 Jul - 09:22:01 10° NW 09:24:58 16° N 09:28:04 10° NE daylight
31 Jul - 11:05:42 10° NNW 11:09:55 25° NNE 11:14:28 10° E daylight
31 Jul - 12:48:36 10° NW 12:53:54 74° NE 12:59:45 10° SE daylight
31 Jul - 14:32:17 10° WNW 14:36:45 26° WSW 14:41:33 10° SSW daylight
01 Aug - 03:37:22 10° SE 03:39:27 13° ESE 03:41:35 10° ENE daylight
01 Aug - 05:17:15 10° SSW 05:21:42 82° SE 05:26:32 10° NE daylight
01 Aug - 07:01:36 10° W 07:05:28 26° NNW 07:09:39 10° NNE daylight
01 Aug - 08:47:26 10° NW 08:50:23 16° N 08:53:28 10° NE daylight
01 Aug - 10:31:31 10° NNW 10:35:25 21° NNE 10:39:38 10° ENE daylight
01 Aug - 12:14:25 10° NW 12:19:38 57° NE 12:25:22 10° SE daylight
01 Aug - 13:57:48 10° NW 14:02:43 35° WSW 14:08:01 10° S daylight
02 Aug - 04:43:12 10° SSW 04:47:33 59° ESE 04:52:16 10° NE daylight
02 Aug - 06:26:57 10° W 06:31:03 31° NNW 06:35:28 10° NNE daylight
02 Aug - 08:12:45 10° NW 08:15:47 16° N 08:18:59 10° NNE daylight
02 Aug - 09:57:16 10° NNW 10:00:54 19° NNE 10:04:46 10° ENE daylight
02 Aug - 11:40:16 10° NNW 11:45:19 45° NE 11:50:52 10° ESE daylight
02 Aug - 13:23:26 10° NW 13:28:37 47° WSW 13:34:16 10° S daylight
03 Aug - 04:09:18 10° S 04:13:28 41° ESE 04:17:56 10° NE daylight
03 Aug - 05:52:23 10° WSW 05:56:39 39° NW 06:01:18 10° NNE daylight
03 Aug - 07:38:01 10° NW 07:41:13 17° NNW 07:44:36 10° NNE daylight
03 Aug - 09:22:59 10° NNW 09:26:21 17° NNE 09:29:56 10° NE daylight
03 Aug - 11:06:07 10° NNW 11:10:58 37° NE 11:16:16 10° ESE daylight
03 Aug - 12:49:09 10° NW 12:54:29 63° WSW 13:00:20 10° SSE daylight
03 Aug - 14:34:18 10° WNW 14:36:51 13° WSW 14:39:28 10° SW daylight
04 Aug - 03:35:36 10° S 03:39:26 29° ESE 03:43:30 10° NE daylight
04 Aug - 05:17:55 10° WSW 05:22:19 51° NW 05:27:08 10° NNE daylight
04 Aug - 07:03:15 10° WNW 07:06:40 19° NNW 07:10:18 10° NNE daylight
04 Aug - 08:48:37 10° NNW 08:51:47 16° N 08:55:08 10° NE daylight
04 Aug - 10:31:57 10° NNW 10:36:34 30° NNE 10:41:35 10° E daylight
04 Aug - 12:14:55 10° NW 12:20:19 82° SW 12:26:15 10° SSE daylight
04 Aug - 13:59:10 10° WNW 14:02:54 19° WSW 14:06:50 10° SSW daylight
05 Aug - 03:02:09 10° SSE 03:05:27 21° ESE 03:08:55 10° ENE daylight
05 Aug - 04:43:34 10° SW 04:48:02 69° NW 04:52:56 10° NE daylight
05 Aug - 06:28:29 10° WNW 06:32:08 22° NNW 06:36:03 10° NNE daylight
05 Aug - 08:14:08 10° NW 08:17:12 16° N 08:20:24 10° NE daylight
05 Aug - 09:57:47 10° NNW 10:02:08 26° NNE 10:06:49 10° E daylight
05 Aug - 11:40:43 10° NW 11:46:05 78° NE 11:52:01 10° SE daylight
05 Aug - 13:24:28 10° WNW 13:28:55 25° WSW 13:33:39 10° SSW daylight
06 Aug - 02:29:08 10° SE 02:31:32 14° ESE 02:34:00 10° ENE daylight
06 Aug - 04:09:21 10° SW 04:13:49 87° SE 04:18:43 10° NE daylight
06 Aug - 05:53:46 10° W 05:57:39 25° NNW 06:01:51 10° NNE daylight
06 Aug - 07:39:34 10° NW 07:42:36 16° N 07:45:47 10° NE daylight
06 Aug - 09:23:36 10° NNW 09:27:39 22° NNE 09:32:00 10° ENE daylight
06 Aug - 11:06:32 10° NW 11:11:50 61° NE 11:17:39 10° SE daylight
06 Aug - 12:49:58 10° NW 12:54:52 34° WSW 13:00:09 10° S daylight
